Skip Page Navigation
NASA JPL Caltech
NASA Logo - Jet Propulsion Laboratory + View the NASA Portal
+ Center for Near-Earth Object Studies
JPL Home Earth Solar System Stars & Galaxies Technology
JPL Solar System Dynamics
BODIES ORBITS EPHEMERIDES TOOLS PHYSICAL DATA DISCOVERY FAQ SITE MAP
IMPORTANT: The SSD Announcement email list is now available. Major changes are coming in the near future, including possible hostname and/or URL changes. To be notified of such changes, subscribe to this email list.

Please visit this page for more details.


JPL Small-Body Database Browser
Search: [ help ]  
523677 (2013 UF15)
Classification: TransNeptunian Object          SPK-ID: 2523677
Ephemeris | Orbit Diagram | Orbital Elements | Physical Parameters | Discovery Circumstances ]

[ show orbit diagram ]
Orbital Elements at Epoch 2458600.5 (2019-Apr-27.0) TDB
Reference: JPL 9 (heliocentric ecliptic J2000)
 Element Value Uncertainty (1-sigma)   Units 
e .1603174486618251 2.0649e-05  
a 42.08237160550165 0.0012728 au
q 35.33583315606879 0.00021002 au
i 12.39927832887955 7.1046e-05 deg
node 39.38729537361182 3.8897e-05 deg
peri 8.895531553661865 0.0072355 deg
M 3.658463808524361 0.0051769 deg
tp 2457587.183767386532
(2016-Jul-17.68376739)
1.4314 TDB
period 99712.30079982338
273.00
4.5238
0.01239
d
yr
n .003610387054679593 1.638e-07 deg/d
Q 48.8289100549345 0.0014769 au
  Orbit Determination Parameters
   # obs. used (total)      166  
   data-arc span      4742 days (12.98 yr)  
   first obs. used      2004-12-14  
   last obs. used      2017-12-08  
   planetary ephem.      DE431  
   SB-pert. ephem.      SB431-N16  
   condition code      2  
   norm. resid. RMS      .51767  
   source      ORB  
   producer      Otto Matic  
   solution date      2018-Oct-04 12:52:26  

Additional Information
 Earth MOID = 34.3461 au 
 Jupiter MOID = 30.3436 au 
 T_jup = 5.607 
[ show covariance matrix ]

Ephemeris | Orbit Diagram | Orbital Elements | Physical Parameters | Discovery Circumstances ]

Physical Parameter Table
Parameter Symbol Value Units Sigma Reference Notes
absolute magnitude H 6.2   n/a MPO450786  

523677 (2013 UF15)          Discovered 2010-Jul-19 by Pan-STARRS 1 at Haleakala
Reference: Last Updated: 2018-10-01
Ephemeris | Orbit Diagram | Orbital Elements | Physical Parameters | Discovery Circumstances ]
ABOUT SSD CREDITS/AWARDS PRIVACY/COPYRIGHT GLOSSARY LINKS
FirstGov
(server date/time)  
NASA Home Page
Site Manager:   Ryan S. Park
Webmaster  Alan B. Chamberlin